Preview of NWS' New Version of Forecast
This preview is not operational and should not be used for support decisions.

Regional Weather Roundup (RWR)

Issued by National Weather Service (NWS)

                            
000
ASUS46 KSEW 230410
RWRWA 

WASHINGTON REGIONAL WEATHER ROUNDUP
NATIONAL WEATHER SERVICE SEATTLE WA
900 PM PDT SAT JUN 22 2019

NOTE:"FAIR" INDICATES FEW OR NO CLOUDS BELOW 12,000 FEET WITH NO 
SIGNIFICANT WEATHER AND/OR OBSTRUCTIONS TO VISIBILITY.

WAZ507-509-555>559-230500-
SEATTLE, TACOMA, EVERETT, AND VICINITY
  
CITY           SKY/WX    TMP DP  RH WIND       PRES   REMARKS
EVERETT        CLOUDY    60  50  69 CALM      30.19S                  
BOEING FIELD   CLOUDY    65  49  56 E5        30.17S                  
RENTON         CLOUDY    64  51  62 VRB3      30.17S                  
SEATAC AIRPORT CLOUDY    64  49  57 SE3       30.18S                  
JBLM-MCCHORD   CLOUDY    63  57  80 W8        30.18S                  
PUYALLUP       CLOUDY    63  54  72 VRB5      30.18S                  
BREMERTON      CLOUDY    60  50  69 NE6       30.18S                  
JBLM-FT LEWIS  CLOUDY    62  58  84 S7        30.17S                  
TACOMA NARROWS CLOUDY    60  52  74 SW8       30.19R                  
$$
 
WAZ001-503-506-510-514-515-230500-
NORTH INTERIOR
  
CITY           SKY/WX    TMP DP  RH WIND       PRES   REMARKS
BELLINGHAM     MOCLDY    59  50  72 S14G22    30.14F                  
FRIDAY HARBOR  PTCLDY    57  49  74 W6        30.14S                  
EASTSOUND      MOCLDY    57  52  82 S13       30.12S                  
PORT ANGELES   PTCLDY    52  51  97 W10       30.19S                  
EDIZ HOOK      MOCLDY    53  50  90 W17G24    30.19R                  
PORT TOWNSEND  CLOUDY    55  52  88 CALM      30.18S                  
NAS WHIDBEY    MOCLDY    59  50  72 SW12      30.22S                  
ARLINGTON      CLOUDY    61  52  72 S3        30.18F                  
BURLINGTON     CLOUDY    59  52  77 SW6       30.19R                  
$$
 
WAZ020-022-039-040-504-511-512-230500-
SOUTHWEST INTERIOR
  
CITY           SKY/WX    TMP DP  RH WIND       PRES   REMARKS
SHELTON        CLOUDY    62  52  69 SW13      30.16R                  
OLYMPIA        CLOUDY    60  51  72 SW8       30.19S                  
CHEHALIS       CLOUDY    61  54  77 VRB5      30.21S                  
KELSO          CLOUDY    60  53  77 W8        30.22F                  
VANCOUVER      CLEAR     63  50  62 NW12      30.20S                  
SCAPPOOSE, OR  CLOUDY    62  51  67 NW6       30.20S                  
PORTLAND, OR   MOCLDY    64  50  60 NW10G21   30.20S                  
$$
 
WAZ021-516-517-230500-
WASHINGTON COAST
  
CITY           SKY/WX    TMP DP  RH WIND       PRES   REMARKS
FORKS          CLOUDY    53  50  89 W5        30.24S                  
HOQUIAM        CLOUDY    56  55  97 NW13      30.23S                  
ASTORIA, OR    CLOUDY    57  55  93 NW9       30.24S FOG              
$$
 
WAZ019-023-024-040-567>569-230500-
CASCADE MOUNTAINS AND COLUMBIA GORGE
  
CITY           SKY/WX    TMP DP  RH WIND       PRES   REMARKS
STAMPEDE PASS  CLOUDY    46  43  89 W8        30.17F                  
TROUTDALE, OR  MOCLDY    64  51  62 VRB7      30.19R                  
HOOD RIVER, OR MOCLDY    64  46  52 W5        30.13S                  
THE DALLES, OR CLEAR     68  47  46 W18G28    30.07R                  
$$

WAZ026-027-041>044-520-521-230500-
EAST SLOPES
  
CITY           SKY/WX    TMP DP  RH WIND       PRES   REMARKS
OMAK           CLOUDY    73  40  30 NW12      29.90R                  
WENATCHEE      PTCLDY    68  36  30 W14       29.97S                  
ELLENSBURG     PTCLDY    60  43  53 NW17G28   30.05S                  
YAKIMA         PTCLDY    67  43  41 NW7       30.02R                  
SUNNYSIDE ARPT MOCLDY    72  42  33 W13       29.96                   
YAKIMA TC      FAIR      65  40  40 N12G18    30.02R                  
$$

WAZ028-034-035-230500-
COLUMBIA BASIN
  
CITY           SKY/WX    TMP DP  RH WIND       PRES   REMARKS
EPHRATA        PTCLDY    72  33  24 NW18G32   29.92F                  
MOSES LAKE     PTCLDY    75  34  22 W15       29.94R                  
PASCO          PTCLDY    73  45  36 NW8       29.94R                  
RICHLAND ARPT  MOCLDY    76  38  25 NW10G24   29.94                   
HERMISTON, OR  CLEAR     71  47  42 SW16G23   29.96R                  
$$

WAZ036>038-230500-
NORTHEAST WASHINGTON
  
CITY           SKY/WX    TMP DP  RH WIND       PRES   REMARKS
SPOKANE GEIGER MOCLDY    68  41  37 S8        29.97F                  
SPOKANE FELTS  PTCLDY    71  43  36 S8        29.96F                  
FAIRCHILD AFB  CLOUDY    64  44  47 SW6       29.98S                  
COEURDALENE,ID PTCLDY    63  45  51 S7        29.99S                  
DEER PARK      CLEAR     64  45  49 MISG      29.96F                  
$$

WAZ029>033-230500-
SOUTHEAST WASHINGTON
  
CITY           SKY/WX    TMP DP  RH WIND       PRES   REMARKS
PULLMAN        MOCLDY    64  50  60 SE7       30.02F                  
LEWISTON, ID   CLOUDY    72  49  44 E7        29.96F                  
WALLA WALLA    MOCLDY    70  45  40 S9        29.97R                  
PENDLETON, OR  CLEAR     67  41  38 W13       29.99S                  
$$